Lexington Weather

Lexington, Massachusetts, USA

70°F
8/17/2022 6:46pm 
  • Lexington Conditions: Overcast
  • Temperature: 69.8°F / 21.0°CColder 0.2°F than last hour.
  • Dew Point: 57.9°FDecreased 1.1°Fsince last hour.
  • Relative Humidity: 66%Decreased 2.0% since last hour.
  • Wind: Calm, 10-min avg: Calm, gust: 2 mph
  • Barometer: 29.85 in Steady
  • Visibility: 10 miles
  • Rain Today: 0.00 in
  •   

Regional Weather Roundup
for Boston, MA

        
000
ASUS41 KBOX 121810
RWRBOX

REGIONAL WEATHER ROUNDUP
NATIONAL WEATHER SERVICE BOSTON/NORTON MA
200 PM EDT FRI AUG 12 2022

NOTE:  "FAIR" INDICATES FEW OR NO CLOUDS BELOW 12,000 FEET WITH NO 
SIGNIFICANT WEATHER AND/OR OBSTRUCTIONS TO VISIBILITY.

MAZALL-121900-
EASTERN MASSACHUSETTS
  
CITY           SKY/WX    TMP DP  RH WIND       PRES   REMARKS
BOSTON         MOSUNNY   77  56  48 E14       29.96S                  
6HR MIN TEMP:  70; 6HR MAX TEMP:  80;                                

BEVERLY        MOSUNNY   79  55  43 VRB7      29.95R                  
LAWRENCE       SUNNY     82  51  34 NW10G17   29.98S                  
BEDFORD        SUNNY     81  48  31 VRB3      29.95S                  
BLUE HILL      NOT AVBL                                               
NORWOOD        MOSUNNY   84  52  33 W9        29.95S                  
MARSHFIELD     MOSUNNY   73  59  60 NE9       29.96S                  
PLYMOUTH       MOSUNNY   76  59  55 NE9       29.97R                  
TAUNTON          N/A    N/A N/A N/A MISG      29.95R                  
NEW BEDFORD    MOSUNNY   83  60  45 VRB5      29.94S                  
$$

MAZALL-121900-
CAPE COD AND THE ISLANDS
  
CITY           SKY/WX    TMP DP  RH WIND       PRES   REMARKS
FALMOUTH       SUNNY     75  59  57 N10G18    29.96S                  
HYANNIS        PTSUNNY   71  62  73 N10       29.96R                  
CHATHAM        PTSUNNY   74  65  73 VRB5      29.96R                  
NANTUCKET      CLOUDY    73  68  84 N12       29.96R                  
MARTHAS VNYRD  PTSUNNY   76  65  68 E6        29.96R                  
$$
 
MAZALL-121900-
CENTRAL AND WESTERN MASSACHUSETTS
  
CITY           SKY/WX    TMP DP  RH WIND       PRES   REMARKS
WORCESTER      SUNNY     77  45  32 NW9       30.00S                  
6HR MIN TEMP:  65; 6HR MAX TEMP:  77;                                

FITCHBURG      SUNNY     80  44  27 MISG      29.98S                  
ORANGE         SUNNY     77  46  33 W9        30.01S                  
SPRINGFIELD    NOT AVBL                                               
WESTFIELD      SUNNY     81  45  28 NW16      29.97F                  
NORTH ADAMS    SUNNY     73  45  36 VRB6      30.04S                  
PITTSFIELD     SUNNY     74  46  36 W13G18    30.03S                  
$$
 
RIZALL-121900-
RHODE ISLAND
  
CITY           SKY/WX    TMP DP  RH WIND       PRES   REMARKS
PROVIDENCE     PTSUNNY   84  52  33 VRB6      29.95S                  
6HR MIN TEMP:  70; 6HR MAX TEMP:  84;                                

NEWPORT        SUNNY     81  58  45 N7        29.96S                  
BLOCK ISLAND   MOSUNNY   77  59  53 E6        29.98S                  
SMITHFIELD     MOSUNNY   81  51  35 VRB3      29.97S                  
WESTERLY       SUNNY     79  59  50 SE9       29.96S                  
$$
 
CTZALL-121900-
CONNECTICUT
  
CITY           SKY/WX    TMP DP  RH WIND       PRES   REMARKS
BRADLEY INTL   MOSUNNY   82  45  27 N10G18    29.98F                  
6HR MIN TEMP:  67; 6HR MAX TEMP:  82;                                

HARTFORD       SUNNY     83  47  28 NW8       29.97F                  
BRIDGEPORT     SUNNY     80  47  31 VRB6      29.97F                  
DANBURY        SUNNY     80  45  28 NE8       30.01F                  
GROTON         SUNNY     81  58  45 SW9       29.95S                  
NEW HAVEN      SUNNY     85  50  29 VRB6      29.97F                  
CHESTER        FAIR      81  46  30 NW10G16   29.99S                  
MERIDEN        SUNNY     81  44  27 VRB5      29.97F                  
WILLIMANTIC    SUNNY     81  46  29 W12       29.97F                  
OXFORD         SUNNY     78  44  29 N15G21    30.01F                  
$$

MEZ002-015-021-024-NHZ003-005-008-011-012-014-VTZ005-008-121900-
NORTHERN NEW ENGLAND
  
CITY           SKY/WX    TMP DP  RH WIND       PRES   REMARKS
PORTLAND ME    PTSUNNY   80  53  39 N7        29.95S                  
6HR MIN TEMP:  68; 6HR MAX TEMP:  80;                                

BANGOR ME      PTSUNNY   76  58  53 N9        29.95F                  
CONCORD NH     SUNNY     75  51  43 W14G24    29.99S                  
MANCHESTER NH  MOSUNNY   79  50  36 NW13G21   29.97S                  
NASHUA NH      MOSUNNY   79  52  38 N12G18    29.98S                  
PORTSMOUTH NH  NOT AVBL                                               
JAFFREY NH     SUNNY     75  48  38 VRB5G16   30.02S                  
KEENE NH       MOSUNNY   75  50  41 N12G20      N/A                   
BURLINGTON VT  PTSUNNY   70  51  51 N10G18    30.06S                  
MT. WASHINGTON FOG       45  45 100 NW12        N/A  VSB 1/16         
$$

NYZ052-076-121900-
EASTERN NEW YORK
  
CITY           SKY/WX    TMP DP  RH WIND       PRES   REMARKS
ALBANY         MOSUNNY   77  44  30 NW13G18   30.03F                  
6HR MIN TEMP:  65; 6HR MAX TEMP:  78;                                

NEW YORK CITY  MOSUNNY   82  44  26 N10G16    29.98F                  
6HR MIN TEMP:  72; 6HR MAX TEMP:  82;                                

$$
 
ANZALL-121900-
MARINE OBSERVATIONS
  
STATION/POSITION TIME  TEMP    WIND        PRES    VSBY  WAVE
                       AIR SEA DIR/SP/G                  HT/PER
                 (UTC) (F)     (DEG/KT/KT) (MB)    (MI)  (FT/S)
BOSTON BUOY      NOT AVBL
BUZZARDS BAY     NOT AVBL
NANTUCKET SOUND  NOT AVBL
MASS BAY-STELLWA NOT AVBL
ISLE OF SHOALS   NOT AVBL
S OF BLOCK IS    NOT AVBL
$$

......................KEY.........................
  SKY/WX - SKY CONDITION/PRESENT WEATHER
  TMP    - TEMPERATURE IN FAHRENHEIT
  DWPT   - DEWPOINT IN FAHRENHEIT
  RH     - RELATIVE HUMIDITY IN PERCENT
  WIND   - DIRECTION AND SPEED IN MPH
  PRES   - MEAN SEA LEVEL PRESSURE IN INCHES OF HG
  WCI    - WIND CHILL INDEX
  VSB    - VISIBILITY IN MILES
  HX     - HEAT INDEX
  TC     - TEMPERATURE IN CELSIUS
  VRB    - VARIABLE WIND DIRECTION
  N/A    - NOT AVAILABLE
  
      

Other recent Regional Weather Roundups

Wed Aug 17, 6:10pm

Wed Aug 17, 5:10pm

Wed Aug 17, 4:10pm

Wed Aug 17, 3:10pm

Wed Aug 17, 2:10pm

Wed Aug 17, 1:10pm

Wed Aug 17, 12:10pm

Wed Aug 17, 11:10am

Wed Aug 17, 10:10am

Wed Aug 17, 9:10am

Wed Aug 17, 8:10am

Wed Aug 17, 7:10am

Wed Aug 17, 6:10am

Wed Aug 17, 5:10am

Wed Aug 17, 4:10am

Wed Aug 17, 3:10am

Wed Aug 17, 2:10am

Wed Aug 17, 1:10am

Wed Aug 17, 12:10am

Tue Aug 16, 11:10pm

Tue Aug 16, 10:10pm

Tue Aug 16, 9:10pm

Tue Aug 16, 8:10pm

Tue Aug 16, 7:10pm

Tue Aug 16, 6:10pm

Tue Aug 16, 5:10pm

Tue Aug 16, 4:10pm

Tue Aug 16, 3:10pm

Tue Aug 16, 2:10pm

Tue Aug 16, 1:10pm

Tue Aug 16, 12:10pm

Tue Aug 16, 11:10am

Tue Aug 16, 10:10am

Tue Aug 16, 9:10am

Tue Aug 16, 8:10am

Tue Aug 16, 7:10am

Tue Aug 16, 6:10am

Tue Aug 16, 5:10am

Tue Aug 16, 4:10am

Tue Aug 16, 3:10am

Tue Aug 16, 2:10am

Tue Aug 16, 1:10am

Tue Aug 16, 12:10am

Mon Aug 15, 11:10pm

Mon Aug 15, 10:10pm

Mon Aug 15, 9:10pm

Mon Aug 15, 8:10pm

Mon Aug 15, 7:10pm

Mon Aug 15, 6:10pm

Mon Aug 15, 5:10pm

Mon Aug 15, 4:10pm

Mon Aug 15, 3:10pm

Mon Aug 15, 2:10pm

Mon Aug 15, 1:10pm

Mon Aug 15, 12:10pm

Mon Aug 15, 11:10am

Mon Aug 15, 10:10am

Mon Aug 15, 9:10am

Mon Aug 15, 8:10am

Mon Aug 15, 7:10am

Mon Aug 15, 6:10am

Mon Aug 15, 5:10am

Mon Aug 15, 4:10am

Mon Aug 15, 3:10am

Mon Aug 15, 2:10am

Mon Aug 15, 1:10am

Mon Aug 15, 12:10am

Sun Aug 14, 11:10pm

Sun Aug 14, 10:10pm

Sun Aug 14, 9:10pm

Sun Aug 14, 8:10pm

Sun Aug 14, 7:10pm

Sun Aug 14, 6:10pm

Sun Aug 14, 5:10pm

Sun Aug 14, 4:10pm

Sun Aug 14, 3:10pm

Sun Aug 14, 2:10pm

Sun Aug 14, 1:10pm

Sun Aug 14, 12:10pm

Sun Aug 14, 11:10am

Sun Aug 14, 10:10am

Sun Aug 14, 9:10am

Sun Aug 14, 8:10am

Sun Aug 14, 7:10am

Sun Aug 14, 6:10am

Sun Aug 14, 5:10am

Sun Aug 14, 4:10am

Sun Aug 14, 3:10am

Sun Aug 14, 2:10am

Sun Aug 14, 1:10am

Sun Aug 14, 12:10am

Sat Aug 13, 11:10pm

Sat Aug 13, 10:10pm

Sat Aug 13, 9:10pm

Sat Aug 13, 8:10pm

Sat Aug 13, 7:10pm

Sat Aug 13, 6:10pm

Sat Aug 13, 5:10pm

Sat Aug 13, 4:10pm

Sat Aug 13, 3:10pm

Sat Aug 13, 2:10pm

Sat Aug 13, 1:10pm

Sat Aug 13, 12:10pm

Sat Aug 13, 11:10am

Sat Aug 13, 10:10am

Sat Aug 13, 9:10am

Sat Aug 13, 8:10am

Sat Aug 13, 7:10am

Sat Aug 13, 6:10am

Sat Aug 13, 5:10am

Sat Aug 13, 4:10am

Sat Aug 13, 3:10am

Sat Aug 13, 2:10am

Sat Aug 13, 1:10am

Sat Aug 13, 12:10am

Fri Aug 12, 11:10pm

Fri Aug 12, 10:10pm

Fri Aug 12, 9:10pm

Fri Aug 12, 8:10pm

Fri Aug 12, 7:10pm

Fri Aug 12, 6:10pm

Fri Aug 12, 5:10pm

Fri Aug 12, 4:10pm

Fri Aug 12, 3:10pm

Fri Aug 12, 1:10pm

Fri Aug 12, 12:10pm

Fri Aug 12, 11:10am

Fri Aug 12, 10:10am

Fri Aug 12, 9:10am

Fri Aug 12, 8:10am

Fri Aug 12, 7:10am

Fri Aug 12, 6:10am

Fri Aug 12, 5:10am

Fri Aug 12, 4:10am

Fri Aug 12, 3:10am

Fri Aug 12, 2:10am

Fri Aug 12, 1:10am

Fri Aug 12, 12:10am

Thu Aug 11, 11:10pm

Thu Aug 11, 10:10pm

Thu Aug 11, 9:10pm

Thu Aug 11, 8:10pm

Thu Aug 11, 7:10pm

Thu Aug 11, 6:10pm

Thu Aug 11, 5:10pm

Thu Aug 11, 4:10pm

Thu Aug 11, 3:10pm

Thu Aug 11, 2:10pm

Thu Aug 11, 1:10pm

Thu Aug 11, 12:10pm

Thu Aug 11, 11:10am

Thu Aug 11, 10:10am

Thu Aug 11, 9:10am

Thu Aug 11, 8:10am

Thu Aug 11, 7:10am

Thu Aug 11, 6:10am

Thu Aug 11, 5:10am

Thu Aug 11, 4:10am

Thu Aug 11, 3:10am

Thu Aug 11, 2:10am

Thu Aug 11, 1:10am

Thu Aug 11, 12:10am

Wed Aug 10, 11:10pm

Wed Aug 10, 10:10pm

Wed Aug 10, 9:10pm

Wed Aug 10, 8:10pm

Wed Aug 10, 7:10pm

Meta data:

ID: 2e409729-41b7-461c-bb8a-9bece0eca9df
Link: https://api.weather.gov/products/2e409729-41b7-461c-bb8a-9bece0eca9df